#timestamp,LO_Frequency,Hit,StdDev 
1542852015.5,286047000.7,N
1542852035.4,286046998.3,N
1542852055.2,286047001.1,N
1542852075.0,286046999.2,N
1542852075.9,286046999.2,N
1542852095.8,286046996.7,N
1542852115.6,286046997.5,N
1542852135.4,286046993.3,N
1542852155.3,286046994.6,N
1542852175.1,286046993.1,N
1542852195.9,286046991.1,N
1542852215.7,286046989.5,N
1542852235.5,286046991.0,N
1542852255.4,286046989.5,N
1542852275.2,286046985.9,Y
1542852295.0,286046986.9,P
1542852296.0,286046986.9,N
1542852315.8,286046986.0,P
1542852335.6,286046986.6,Y
1542852355.5,286046997.8,P
1542852375.3,286047001.1,N
1542852395.1,286047001.6,N
1542852415.9,286047000.9,N
1542852435.7,286046999.2,N
1542852455.6,286046997.2,N
1542852475.4,286046998.8,N
1542852495.2,286046998.9,N
1542852515.1,286046998.1,N
1542852516.0,286046998.1,N
1542852535.8,286046998.5,N
1542852555.6,286047000.1,N
1542852575.5,286047002.3,N
1542852595.3,286047001.9,N
1542852615.2,286047001.5,N
1542852635.9,286047001.8,N
1542852655.7,286047000.4,N
1542852675.6,286047002.6,N
1542852695.4,286047002.1,N
1542852715.2,286047004.0,N
1542852735.1,286047005.5,N
1542852736.0,286047005.5,N
1542852755.8,286047005.0,N
1542852775.6,286047005.5,N
1542852795.5,286047004.0,N
1542852815.3,286047003.1,N
1542852835.2,286047005.1,N
1542852855.9,286047003.1,N
1542852875.7,286047005.1,N
1542852895.6,286047006.2,N
1542852915.4,286047004.9,N
1542852935.3,286047006.2,N
1542852955.1,286047008.3,Y
1542852956.0,286047008.3,P
1542852975.8,286047007.3,N
1542852995.7,286047006.3,N
1542853015.5,286047007.2,Y
1542853035.3,286046998.7,P
1542853055.2,286046999.7,N
1542853075.0,286047002.3,N
1542853075.9,286047002.3,N
1542853095.8,286047000.9,N
1542853115.6,286046998.1,N
1542853135.4,286047000.3,N
1542853155.3,286046999.6,N
1542853175.1,286046999.0,N
1542853195.8,286046998.6,N
1542853215.7,286046999.5,N
1542853235.5,286046996.6,N
1542853255.4,286047000.3,N
1542853275.2,286046998.5,N
1542853295.0,286046998.5,N
1542853295.9,286046998.5,N
1542853315.8,286046999.6,N
1542853335.6,286046997.3,N
1542853355.5,286046997.7,N
1542853375.3,286046995.8,N
1542853395.1,286046994.9,N
1542853415.9,286046996.9,N
1542853435.7,286046995.7,N
1542853455.5,286046999.4,N
1542853475.4,286046999.2,N
1542853495.2,286046997.3,N
1542853515.0,286046999.1,N
1542853516.0,286046999.1,N
1542853535.8,286046996.6,N
1542853555.6,286046999.2,N
1542853575.5,286046999.3,N
1542853595.3,286046999.2,N
1542853615.1,286046998.9,N
1542853635.9,286046998.7,N
1542853655.7,286046999.0,N
1542853675.5,286046999.3,N
1542853695.4,286046998.8,N
1542853715.2,286046998.4,N
1542853735.1,286046997.7,N
1542853736.0,286046997.7,N
1542853755.8,286046997.5,N
1542853775.6,286046995.4,Y
1542853795.5,286046999.6,P
1542853815.3,286046999.1,N
1542853835.1,286046999.5,N
1542853855.9,286046996.7,Y
1542853875.7,286046996.3,P
1542853895.6,286046994.1,P
1542853915.4,286046994.1,N
1542853935.2,286046994.1,N
1542853955.1,286046993.6,Y
1542853956.0,286046993.6,P
1542853975.8,286046996.8,P
1542853995.7,286046997.0,N
1542854015.5,286046997.0,N
1542854035.3,286046998.9,N
1542854055.2,286046995.2,N
1542854075.0,286046997.9,N
1542854075.9,286046997.9,N
1542854095.7,286046993.9,Y
1542854115.6,286046996.8,P
1542854135.4,286046997.4,P
1542854155.3,286046997.9,P
1542854175.1,286046999.5,N
1542854176.0,286046999.5,N
1542854195.8,286046996.8,N
1542854215.7,286046996.8,N
1542854235.5,286046995.8,Y
1542854255.4,286046997.7,P
1542854275.2,286046995.8,P
1542854295.0,286046995.0,P
1542854295.9,286046995.0,Y
1542854315.8,286046997.6,P
1542854335.6,286046999.5,N
1542854355.4,286046996.2,P
1542854375.3,286046996.4,N
1542854395.1,286046991.9,Y
1542854415.9,286046996.8,P
1542854435.7,286046993.8,P
1542854455.5,286046992.5,P
1542854475.4,286046988.7,Y
1542854495.2,286046995.4,P
1542854515.0,286046995.6,P
1542854515.9,286046995.6,P
1542854535.8,286046993.8,Y
1542854555.6,286046998.9,P
1542854575.5,286046996.7,N
1542854595.3,286047000.8,N
1542854615.1,286046998.8,N
1542854635.9,286046998.2,N
1542854655.7,286046996.6,N
1542854675.5,286046998.1,N
1542854695.4,286046999.7,N
1542854715.2,286046998.3,N
1542854735.1,286047000.7,N
1542854736.0,286047000.7,N
1542854755.8,286046998.7,N
1542854775.6,286046999.4,N
1542854795.5,286046996.9,N
1542854815.3,286046998.0,N
1542854835.1,286046997.8,N
1542854855.9,286046999.3,N
1542854875.7,286046996.9,N
1542854895.6,286046995.4,Y
1542854915.4,286046998.8,P
1542854935.2,286047000.8,P
1542854955.1,286047000.8,N
1542854956.0,286047000.8,N
1542854975.8,286046998.1,N
1542854995.7,286046996.7,N
1542855015.5,286046995.3,Y
1542855035.3,286046999.2,P
1542855055.2,286046999.5,P
1542855075.0,286046999.6,P
1542855075.9,286046999.6,N
1542855095.7,286046996.0,Y
1542855115.6,286046993.9,P
1542855135.4,286046995.9,N
1542855155.3,286046994.7,N
1542855175.1,286046994.8,N
1542855176.0,286046994.8,N
1542855195.8,286046993.5,Y
1542855215.7,286046999.3,P
1542855235.5,286046998.4,N
1542855255.4,286046999.0,N
1542855275.2,286046998.2,N
1542855295.0,286047002.8,N
1542855295.9,286047002.8,N
1542855315.8,286047004.0,N
1542855335.6,286047002.2,N
1542855355.4,286047002.8,N
1542855375.3,286047002.0,N
1542855395.1,286046999.9,N
1542855415.9,286047001.3,N
1542855435.7,286047003.2,N
1542855455.5,286047003.4,N
1542855475.4,286047005.9,N
1542855495.2,286047004.5,N
1542855515.0,286047010.7,Y
1542855515.9,286047010.7,P
1542855535.8,286047009.0,N
1542855555.6,286047008.7,N
1542855575.5,286047007.9,N
1542855595.3,286047007.9,N
